TimeCDT,TemperatureF,Dew PointF,Humidity,Sea Level PressureIn,VisibilityMPH,Wind Direction,Wind SpeedMPH,Gust SpeedMPH,PrecipitationIn,Events,Conditions,WindDirDegrees,DateUTC
12:16 AM,40.5,40.3,99,29.76,7.0,Calm,Calm,-,N/A,,Clear,0,2013-10-06 05:16:00
12:36 AM,40.1,39.9,99,29.75,4.0,Calm,Calm,-,N/A,,Scattered Clouds,0,2013-10-06 05:36:00
12:56 AM,40.5,40.5,100,29.74,5.0,Calm,Calm,-,N/A,,Mostly Cloudy,0,2013-10-06 05:56:00
1:16 AM,43.0,43.0,100,29.74,10.0,Calm,Calm,-,N/A,,Overcast,0,2013-10-06 06:16:00
1:36 AM,44.4,44.4,100,29.74,10.0,Calm,Calm,-,N/A,,Overcast,0,2013-10-06 06:36:00
1:56 AM,44.8,44.8,100,29.73,10.0,Calm,Calm,-,N/A,,Overcast,0,2013-10-06 06:56:00
2:16 AM,45.0,45.0,100,29.73,10.0,Calm,Calm,-,N/A,,Overcast,0,2013-10-06 07:16:00
2:36 AM,45.9,45.9,100,29.73,10.0,Calm,Calm,-,N/A,,Light Drizzle,0,2013-10-06 07:36:00
2:56 AM,45.9,45.9,100,29.72,10.0,Calm,Calm,-,N/A,,Overcast,0,2013-10-06 07:56:00
3:16 AM,46.4,46.2,99,29.71,10.0,Calm,Calm,-,N/A,,Overcast,0,2013-10-06 08:16:00
3:36 AM,46.4,46.2,99,29.71,10.0,Calm,Calm,-,N/A,,Overcast,0,2013-10-06 08:36:00
3:56 AM,46.8,46.6,99,29.71,10.0,Calm,Calm,-,N/A,,Overcast,0,2013-10-06 08:56:00
4:16 AM,47.3,46.8,98,29.71,10.0,Calm,Calm,-,N/A,,Overcast,0,2013-10-06 09:16:00
4:36 AM,47.8,47.5,99,29.70,10.0,Calm,Calm,-,N/A,,Overcast,0,2013-10-06 09:36:00
4:56 AM,48.0,47.5,98,29.70,10.0,Calm,Calm,-,N/A,,Overcast,0,2013-10-06 09:56:00
5:16 AM,48.2,47.8,99,29.70,10.0,Calm,Calm,-,N/A,,Overcast,0,2013-10-06 10:16:00
5:36 AM,48.4,48.2,99,29.70,10.0,Calm,Calm,-,N/A,,Overcast,0,2013-10-06 10:36:00
5:56 AM,48.4,47.7,97,29.71,10.0,WNW,4.6,-,N/A,,Overcast,290,2013-10-06 10:56:00
6:16 AM,48.4,47.8,98,29.71,2.5,WNW,5.8,-,N/A,,Drizzle,290,2013-10-06 11:16:00
6:36 AM,48.4,48.2,99,29.72,3.0,Calm,Calm,-,0.02,,Drizzle,0,2013-10-06 11:36:00
6:56 AM,48.9,48.6,99,29.71,5.0,NNW,4.6,-,0.03,,Overcast,340,2013-10-06 11:56:00
7:16 AM,49.1,48.7,99,29.70,10.0,North,5.8,-,N/A,,Overcast,360,2013-10-06 12:16:00
7:36 AM,49.1,48.7,99,29.70,7.0,NNE,4.6,-,N/A,,Overcast,20,2013-10-06 12:36:00
7:56 AM,49.1,49.1,100,29.71,4.0,North,4.6,-,N/A,,Overcast,10,2013-10-06 12:56:00
8:16 AM,49.5,49.1,99,29.71,10.0,NNW,8.1,-,N/A,,Overcast,340,2013-10-06 13:16:00
8:36 AM,49.6,49.1,98,29.72,10.0,NNW,8.1,-,N/A,,Overcast,330,2013-10-06 13:36:00
8:56 AM,49.1,48.4,97,29.73,10.0,NNW,12.7,17.3,N/A,,Overcast,340,2013-10-06 13:56:00
9:16 AM,49.3,48.2,96,29.73,10.0,NNW,9.2,-,N/A,,Overcast,340,2013-10-06 14:16:00
9:36 AM,49.3,48.2,96,29.73,3.0,NNW,11.5,16.1,N/A,,Overcast,330,2013-10-06 14:36:00
9:56 AM,49.5,48.7,97,29.73,2.0,NNW,12.7,18.4,N/A,,Overcast,340,2013-10-06 14:56:00
10:16 AM,49.8,49.1,97,29.73,10.0,NNW,10.4,-,N/A,,Overcast,340,2013-10-06 15:16:00
10:36 AM,50.4,49.1,95,29.73,10.0,North,6.9,-,N/A,,Overcast,350,2013-10-06 15:36:00
10:56 AM,51.1,49.5,94,29.73,10.0,North,9.2,-,N/A,,Overcast,10,2013-10-06 15:56:00
11:16 AM,51.6,49.1,91,29.73,10.0,North,9.2,-,N/A,,Overcast,10,2013-10-06 16:16:00
11:36 AM,51.8,49.1,90,29.74,10.0,North,9.2,-,N/A,,Overcast,10,2013-10-06 16:36:00
11:56 AM,51.4,49.1,92,29.74,10.0,North,8.1,-,N/A,,Overcast,360,2013-10-06 16:56:00
12:16 PM,51.1,50.0,96,29.74,4.0,North,5.8,-,N/A,,Overcast,10,2013-10-06 17:16:00
12:35 PM,51.3,50.0,95,29.75,7.0,North,6.9,-,N/A,,Overcast,10,2013-10-06 17:35:00
12:56 PM,51.3,50.0,95,29.75,2.5,North,12.7,-,N/A,,Overcast,350,2013-10-06 17:56:00
1:16 PM,51.4,50.4,96,29.74,4.0,North,9.2,-,N/A,,Overcast,350,2013-10-06 18:16:00
1:36 PM,51.4,50.0,95,29.75,4.0,North,8.1,-,N/A,,Overcast,360,2013-10-06 18:36:00
1:56 PM,50.7,49.8,97,29.75,1.8,NW,9.2,19.6,N/A,Rain,Light Rain,320,2013-10-06 18:56:00
2:16 PM,50.4,49.5,97,29.75,1.2,NNW,15.0,18.4,N/A,Rain,Light Rain,340,2013-10-06 19:16:00
2:36 PM,50.0,49.1,97,29.75,2.5,North,11.5,19.6,N/A,,Overcast,350,2013-10-06 19:36:00
2:56 PM,49.3,48.2,96,29.76,4.0,North,13.8,20.7,N/A,,Overcast,350,2013-10-06 19:56:00
3:16 PM,50.0,48.0,93,29.75,10.0,NNW,11.5,-,N/A,,Overcast,340,2013-10-06 20:16:00
3:36 PM,50.2,47.8,92,29.76,10.0,NNW,6.9,-,N/A,,Overcast,340,2013-10-06 20:36:00
3:56 PM,50.0,47.3,90,29.77,10.0,NNW,12.7,19.6,N/A,,Overcast,340,2013-10-06 20:56:00
4:16 PM,49.1,46.9,92,29.78,10.0,NNW,10.4,-,N/A,,Overcast,330,2013-10-06 21:16:00
4:36 PM,48.7,47.3,95,29.78,3.0,NNW,11.5,16.1,N/A,Rain,Rain,330,2013-10-06 21:36:00
4:56 PM,48.7,47.8,97,29.78,4.0,NNW,6.9,-,0.01,,Drizzle,330,2013-10-06 21:56:00
5:16 PM,48.7,48.0,97,29.80,3.0,NNW,9.2,16.1,0.01,Rain,Light Rain,340,2013-10-06 22:16:00
5:36 PM,49.1,48.2,97,29.80,7.0,NW,6.9,-,0.02,,Light Drizzle,320,2013-10-06 22:36:00
5:56 PM,50.0,48.6,95,29.80,10.0,NNW,6.9,-,0.02,,Mostly Cloudy,340,2013-10-06 22:56:00
6:16 PM,50.0,48.4,94,29.82,10.0,NNW,5.8,-,N/A,,Mostly Cloudy,330,2013-10-06 23:16:00
6:36 PM,49.5,48.2,95,29.82,10.0,NW,5.8,-,N/A,,Mostly Cloudy,320,2013-10-06 23:36:00
6:56 PM,48.2,47.1,96,29.83,10.0,Calm,Calm,-,N/A,,Scattered Clouds,0,2013-10-06 23:56:00
7:16 PM,47.3,46.6,97,29.83,10.0,Calm,Calm,-,N/A,,Clear,0,2013-10-07 00:16:00
7:36 PM,45.1,44.6,98,29.83,4.0,Calm,Calm,-,N/A,,Clear,0,2013-10-07 00:36:00
7:56 PM,44.4,44.1,99,29.84,3.0,Calm,Calm,-,N/A,,Clear,0,2013-10-07 00:56:00
8:16 PM,45.1,45.1,100,29.84,4.0,Calm,Calm,-,N/A,,Clear,0,2013-10-07 01:16:00
8:35 PM,45.3,45.3,100,29.84,10.0,West,3.5,-,N/A,,Clear,280,2013-10-07 01:35:00
8:56 PM,45.9,45.9,100,29.84,10.0,WNW,3.5,-,N/A,,Clear,300,2013-10-07 01:56:00
9:16 PM,45.5,45.0,98,29.84,10.0,WNW,3.5,-,N/A,,Clear,290,2013-10-07 02:16:00
9:36 PM,45.3,44.4,97,29.85,10.0,West,3.5,-,N/A,,Clear,280,2013-10-07 02:36:00
9:56 PM,46.4,45.1,95,29.85,10.0,WNW,5.8,-,N/A,,Clear,300,2013-10-07 02:56:00
10:16 PM,47.1,45.5,94,29.86,10.0,WNW,6.9,-,N/A,,Clear,290,2013-10-07 03:16:00
10:36 PM,47.8,44.8,89,29.86,10.0,WNW,6.9,-,N/A,,Clear,290,2013-10-07 03:36:00
10:56 PM,47.8,44.6,89,29.86,10.0,WNW,5.8,-,N/A,,Clear,290,2013-10-07 03:56:00
11:16 PM,48.2,43.9,85,29.86,10.0,WNW,6.9,-,N/A,,Clear,290,2013-10-07 04:16:00
11:36 PM,47.8,43.5,85,29.86,10.0,West,5.8,-,N/A,,Clear,280,2013-10-07 04:36:00
11:56 PM,47.8,43.2,84,29.86,10.0,West,5.8,-,N/A,,Clear,280,2013-10-07 04:56:00